Volver al catálogo

COSMOS 1275 DEB

ActivoPO
NORAD 42223·DEBRIS·🇷🇺 Russia

Lanzado Jun 4, 1981 desde Plesetsk Cosmodrome

Loading…

Próximos Pases (próximas 24 horas)

TLE

ActualizadoSource: Space-Track

Época: Sep 14, 2026, 06:10 UTC

1 42223U 81053UP  26257.25702100  .00002904  00000-0  92864-3 0  9996
2 42223  82.8572 246.9219 0035591 185.3052 174.7768 14.39023041615961

Sigue COSMOS 1275 DEB en tiempo real con AllMySat

Download on the App Store